RH
71 71 72 73 73 71 82 95 99 92 92 96 98 98 88 75 78 84 75 75 70 86 92 94 91 88 81 78 68 73 74 81 95 83 74 81 83 83 79 90 88 87 78 67
72 70 72 74 71 72 95 95 95 86 87 96 98 86 82 78 74 70 68 70 61 60 78 84 85 80 71 75 72 77 72 90 94 94 80 82 91 90 81 79 83 96 89 69
71 71 73 74 67 76 91 90 92 89 96 94 93 92 90 82 73 69 63 66 64 58 62 75 83 82 74 66 67 68 64 82 81 85 74 87 98 93 87 84 94 75 76 63
70 71 73 72 65 75 78 91 91 92 96 93 93 92 91 90 87 72 68 68 76 73 76 80 86 83 79 67 69 68 68 87 90 76 74 88 90 86 86 98 78 89 73 69
71 72 74 69 65 69 90 77 84 94 94 92 93 86 94 93 86 87 82 76 80 81 74 72 77 80 79 76 71 75 72 90 83 78 78 84 91 82 88 82 74 73 76 86
73 73 75 68 67 63 90 98 94 90 80 79 92 81 69 80 78 87 82 90 86 78 86 83 79 74 70 72 70 77 77 87 89 87 82 71 72 69 79 85 85 75 86 68
76 75 74 68 70 74 90 97 93 72 67 74 76 70 67 70 69 83 73 85 84 89 89 85 74 70 74 70 81 72 83 78 80 89 81 89 59 59 62 69 65 82 80 71
77 75 74 73 70 72 95 98 86 78 86 80 72 74 83 82 75 86 91 90 91 83 84 70 72 77 74 79 80 83 71 80 93 91 92 71 62 74 71 70 64 62 66 61
76 76 75 76 74 75 95 98 94 83 81 91 76 77 76 84 90 71 73 69 69 85 77 83 94 88 82 84 87 84 73 72 75 94 93 90 56 66 66 65 82 61 67 71
76 78 76 76 76 74 92 98 89 87 91 88 83 84 83 80 86 83 79 76 86 88 90 98 95 86 81 88 90 92 84 83 92 91 92 80 58 56 63 84 62 66 78 74
76 79 77 77 77 74 87 97 94 88 96 93 83 81 90 90 87 87 80 89 87 98 99 95 94 90 89 87 83 88 91 94 98 93 97 91 60 78 78 60 72 76 78 78
76 78 77 77 75 77 81 98 86 87 92 90 86 88 86 84 78 88 91 95 96 99 99 96 96 90 92 88 90 86 87 78 85 84 81 58 55 61 64 72 76 74 75 67
77 77 76 76 76 77 82 98 96 94 94 82 76 77 74 76 84 79 85 93 87 98 98 99 99 86 82 92 92 87 81 78 78 71 68 67 62 60 62 64 71 71 70 72
76 76 76 77 79 78 82 96 98 93 94 87 73 68 81 72 78 83 75 84 90 92 98 88 98 96 98 94 90 94 82 80 78 80 70 64 61 63 60 63 67 76 75 76
76 77 78 79 78 81 93 98 98 94 88 87 85 80 76 76 80 80 80 81 87 94 92 93 86 92 93 91 95 99 89 83 84 84 68 73 71 65 66 70 73 74 79 82
79 78 81 76 78 78 86 91 89 93 91 92 91 80 82 82 84 86 88 89 93 96 94 94 93 84 97 95 93 73 82 75 74 80 85 84 74 78 78 81 80 82 83 82
79 80 82 80 78 92 85 84 88 83 90 92 94 95 75 77 87 92 89 89 94 94 97 96 96 92 95 96 98 60 59 54 69 70 69 73 67 82 87 88 87 83 86 86
79 81 81 79 81 82 93 97 83 85 94 90 96 94 91 83 94 93 91 96 95 96 95 96 96 91 96 98 82 66 52 75 86 82 82 83 72 80 85 82 83 88 87 87
81 80 78 88 92 95 97 84 86 96 88 98 96 98 96 86 91 97 95 91 95 94 98 97 91 89 93 73 64 57 68 89 84 83 87 91 90 88 87 85 86 88 89 88
81 79 85 97 97 83 87 92 92 95 96 95 96 96 95 90 92 98 97 97 93 100 89 94 92 82 77 71 67 70 83 93 86 92 96 97 96 92 89 93 88 89 92 92
85 90 98 98 82 92 94 93 95 95 94 94 93 94 99 90 95 93 97 98 98 98 97 96 96 91 89 82 90 86 89 90 86 85 88 92 94 94 90 92 95 93 91 90
85 90 91 90 88 91 89 97 92 88 95 96 91 96 93 93 94 99 96 100 99 97 98 98 94 89 85 92 91 87 88 92 95 94 95 96 97 97 97 98 96 97 99 99
81 85 88 88 94 94 87 100 97 96 99 98 98 92 92 93 98 99 100 98 96 98 98 91 97 92 89 96 90 86 87 91 94 98 99 99 99 99 99 98 98 97 93 78
90 89 92 90 97 94 92 93 95 92 98 98 83 82 79 94 99 98 99 90 99 98 98 96 96 99 98 99 99 99 89 90 92 95 99 99 98 99 99 99 97 94 95 96
88 87 85 91 87 98 99 98 98 97 89 88 89 88 82 92 98 96 98 98 94 94 95 98 99 99 99 99 98 91 87 94 96 96 99 98 85 84 83 82 80 84 88 91
90 89 89 86 93 99 99 100 98 98 78 88 89 92 91 86 98 99 86 88 97 92 99 98 99 100 98 97 91 87 87 93 97 99 100 99 97 86 86 83 74 82 86 83
94 98 83 89 97 95 99 88 93 94 92 99 98 100 94 94 98 98 90 94 94 94 98 98 92 96 96 90 90 89 87 90 98 99 100 100 98 98 85 71 54 65 77 87
Wind_Speed
0 4 7 10 13 8 5 3 2 2 1 1 2 2 4 3 2 2 2 1 1 3 4 3 1 3 3 3 5 4 2 5 3 2 2 1 2 4 5 4 4 1 1 7
1 4 7 10 12 3 4 3 2 2 1 1 2 3 1 2 0 0 1 0 1 2 3 3 1 3 1 4 4 6 6 2 5 2 1 3 4 4 3 5 3 6 4 5
3 4 7 10 11 3 4 4 1 3 3 0 3 2 2 1 2 1 2 2 3 2 3 4 3 2 2 4 1 4 5 3 6 7 4 5 6 6 8 7 6 7 14 12
5 3 6 9 7 7 5 3 2 2 2 1 3 1 0 1 2 5 5 3 3 0 3 1 2 2 1 3 3 3 3 3 3 1 2 3 3 5 11 15 17 10 1 15
6 3 6 9 4 9 6 5 4 2 0 1 2 4 2 2 4 3 3 4 3 1 2 1 5 3 3 3 2 3 2 2 3 2 2 4 4 8 8 14 15 18 21 23
7 5 7 9 6 5 4 1 2 4 3 1 2 1 1 3 2 0 4 1 1 4 3 4 4 2 1 2 6 3 3 4 3 3 2 2 5 7 11 6 5 15 14 20
9 7 8 9 12 8 4 2 4 4 2 2 2 1 2 2 3 2 4 3 2 2 6 3 2 5 5 5 4 3 6 5 1 2 2 1 5 1 3 10 7 9 8 11
11 10 9 10 14 11 5 3 4 3 4 2 3 3 2 3 4 2 2 3 1 4 3 2 3 4 2 3 4 2 2 5 3 3 3 6 2 1 4 5 4 5 10 12
13 12 10 10 10 10 5 3 2 4 6 1 1 3 3 2 3 5 2 4 4 3 2 2 3 4 3 2 1 4 3 4 3 2 2 4 5 2 2 2 3 3 5 7
14 13 12 11 10 8 5 3 3 4 5 2 2 3 2 1 2 1 3 6 6 3 2 2 3 3 4 4 5 3 3 2 4 3 3 6 6 4 5 3 5 2 2 5
16 14 12 12 9 7 5 1 1 4 4 0 2 2 2 1 2 1 3 1 2 2 2 2 3 3 5 2 4 5 6 5 4 3 3 7 5 3 4 6 2 3 3 3
18 15 13 12 9 9 5 3 2 2 5 4 1 2 0 1 3 3 3 1 2 2 2 1 1 0 1 3 2 1 3 6 5 8 7 4 5 5 5 3 5 4 3 3
20 17 16 13 10 10 6 3 1 4 4 3 4 3 2 2 2 2 3 1 1 2 1 1 2 2 2 2 4 2 2 2 3 1 3 6 6 6 5 4 7 6 6 4
20 18 16 12 10 8 7 3 1 3 4 5 1 2 0 1 1 2 3 3 3 2 1 1 2 2 3 1 1 2 4 3 3 4 7 7 4 4 5 6 6 7 5 3
21 18 17 13 14 15 8 3 2 1 4 5 2 2 1 3 1 5 4 3 2 1 2 1 3 2 1 1 1 4 5 6 4 5 2 2 6 7 5 7 6 5 6 3
21 18 19 16 18 10 4 4 3 2 3 5 3 2 2 4 5 6 5 3 2 2 2 2 2 3 2 2 4 6 3 2 2 3 2 4 9 8 5 7 5 4 5 4
21 19 19 15 13 4 3 3 3 1 3 4 3 3 2 2 1 1 2 2 1 2 0 1 1 2 2 2 3 4 4 5 5 4 4 6 7 4 7 4 5 4 5 4
22 20 18 18 18 10 5 3 3 3 4 4 5 2 1 2 1 0 1 2 2 1 1 1 2 2 1 4 6 5 6 7 7 6 5 9 11 3 3 3 2 2 3 1
24 23 19 6 5 3 2 1 4 2 4 4 3 4 3 3 1 1 1 2 1 2 2 3 3 2 6 7 5 4 4 3 7 10 10 7 6 7 4 1 2 2 2 2
26 4 4 3 1 4 4 2 3 4 4 3 3 1 1 2 0 1 2 1 2 2 3 3 3 4 5 7 7 4 4 5 5 6 6 6 5 5 3 2 2 0 1 3
2 4 4 2 2 3 3 3 3 1 3 1 2 3 0 1 0 2 2 1 2 2 2 2 2 3 1 6 6 5 4 4 3 3 4 4 4 5 1 2 4 5 4 4
6 9 7 3 3 3 6 1 2 1 4 2 3 3 3 1 2 2 2 2 2 4 4 3 3 1 3 4 5 6 6 5 5 5 5 5 6 6 4 4 4 4 5 5
4 5 6 3 2 5 5 6 3 3 3 4 2 2 1 1 2 2 2 3 3 1 3 3 3 2 4 5 4 5 4 4 3 3 2 2 4 5 5 4 3 3 3 5
5 5 5 2 2 4 4 4 4 4 4 4 3 3 1 1 1 0 3 2 2 3 3 5 1 3 5 5 4 4 5 3 2 1 0 1 2 3 2 2 1 2 2 2
5 3 4 5 3 3 1 2 1 3 4 4 3 2 1 1 1 2 3 2 4 5 5 2 3 3 3 3 4 5 4 4 3 1 2 2 2 2 1 1 1 2 2 1
4 4 5 1 3 3 3 2 2 2 5 3 3 2 2 4 2 2 5 3 6 4 3 3 3 3 3 2 3 4 4 4 3 3 3 3 4 3 3 3 3 2 3 3
4 2 2 3 3 4 4 5 5 3 4 3 3 5 8 0 1 4 4 6 5 4 4 4 7 7 6 5 5 5 5 5 4 3 3 3 2 2 3 4 2 3 3 3
Wind_Direction
196 347 340 336 332 355 73 111 68 245 202 126 96 200 195 224 188 154 257 253 175 159 152 142 191 182 291 141 141 112 121 118 109 124 77 8 175 169 143 136 221 83 134 269
126 12 347 337 330 1 130 106 168 299 193 114 316 293 283 246 17 162 167 168 339 112 143 105 111 131 340 169 154 158 174 115 112 113 1 345 218 207 136 106 105 197 179 246
110 30 346 338 332 142 91 94 55 330 62 147 112 12 10 344 27 56 18 29 45 88 71 18 144 122 39 145 150 113 98 135 151 181 200 139 194 203 190 189 227 222 232 270
106 39 355 346 352 142 96 35 197 196 265 21 80 29 339 357 36 350 29 41 51 29 125 70 115 121 99 59 105 67 76 113 90 244 130 125 202 215 197 211 223 229 176 239
112 65 21 7 52 120 81 129 142 28 153 305 99 344 16 71 337 9 359 95 324 345 112 135 195 149 178 187 81 99 26 146 127 125 83 184 231 222 219 220 230 243 258 281
122 88 49 28 61 98 105 168 43 108 320 56 109 51 6 68 319 152 76 315 16 66 17 324 298 192 142 175 146 117 97 137 92 272 7 340 291 228 192 193 226 222 234 245
129 106 79 53 54 88 117 143 112 104 117 86 88 59 338 8 340 289 317 11 50 346 316 262 243 59 88 101 52 102 137 124 54 215 16 1 241 134 166 212 236 219 254 262
136 117 92 83 69 67 89 126 114 128 104 100 85 48 355 338 329 25 302 5 77 296 325 46 47 355 33 58 46 122 116 124 102 146 193 291 339 179 143 173 290 206 235 266
133 119 104 91 104 106 86 83 105 98 124 345 113 101 24 63 342 352 356 338 308 339 111 29 173 192 192 262 34 38 97 87 108 131 148 240 241 231 174 115 289 223 205 262
138 124 109 96 89 98 105 84 89 89 104 255 105 114 120 128 76 226 305 337 355 350 135 160 150 218 182 177 180 170 131 99 171 186 228 282 242 224 162 111 229 277 229 267
138 128 118 101 93 98 92 111 42 115 98 81 89 79 95 41 93 128 309 274 21 38 248 194 184 152 216 146 188 176 164 150 196 166 203 267 163 94 168 221 263 249 259 251
138 131 123 108 99 88 95 89 317 71 86 140 131 80 67 192 200 135 11 83 22 36 270 32 164 95 91 159 230 23 200 180 180 182 212 245 215 217 238 183 235 261 269 281
139 132 121 112 101 77 101 115 34 60 88 37 70 27 334 100 165 183 111 314 61 112 292 355 304 204 127 182 250 275 245 163 197 66 271 242 254 272 262 248 238 255 254 262
140 134 123 118 102 111 95 95 24 84 106 109 271 352 201 78 103 145 151 134 40 103 239 45 331 304 14 176 272 225 214 127 188 267 290 298 283 247 282 301 279 272 270 238
137 135 125 119 117 109 91 93 58 130 120 139 158 309 339 343 351 140 129 122 112 47 2 121 227 268 245 256 293 239 186 191 162 232 152 202 266 311 305 305 298 278 232 228
137 141 128 131 129 116 78 56 338 358 100 97 92 302 334 24 67 103 105 122 110 118 142 253 291 271 339 279 244 257 218 83 174 260 285 231 270 284 324 297 300 284 224 239
143 138 131 138 130 83 95 145 186 112 85 82 66 2 326 298 140 57 91 100 151 124 227 248 259 293 10 258 258 305 3 321 313 276 319 278 215 239 324 323 344 26 68 63
141 134 128 121 112 101 46 345 60 79 86 70 101 294 17 324 230 210 113 85 29 248 238 259 213 293 183 249 247 291 296 308 301 312 273 250 268 272 229 264 296 64 72 44
130 128 125 91 47 68 187 150 74 71 113 110 85 120 230 341 214 105 99 140 235 189 242 240 159 195 229 227 229 268 271 271 292 300 291 302 269 276 288 241 44 298 173 73
131 126 73 76 36 145 148 60 21 21 350 49 94 118 242 157 314 198 168 183 246 236 222 122 243 267 274 263 259 265 307 316 323 324 348 347 329 337 319 31 50 3 25 77
94 95 79 86 118 66 39 60 64 1 30 67 130 163 63 177 360 347 231 230 211 272 175 208 241 253 193 355 336 335 322 315 300 306 317 344 341 330 42 102 50 40 25 43
145 108 103 105 63 50 81 30 357 122 194 167 137 152 205 263 163 255 244 262 206 251 141 223 245 149 2 345 327 321 327 336 350 10 4 14 25 23 51 57 57 45 31 16
76 66 76 80 2 58 148 174 231 195 172 167 135 115 178 222 227 254 280 265 244 68 228 249 237 346 342 340 329 324 332 348 360 2 7 37 68 58 63 72 54 59 41 9
81 113 92 129 186 238 182 182 168 225 114 117 112 123 182 165 232 302 261 263 270 260 243 237 300 328 317 319 321 312 312 315 314 296 42 82 75 84 79 55 354 335 10 355
94 98 138 192 153 85 174 208 62 320 95 101 106 77 237 186 279 215 284 250 247 220 227 200 230 234 258 285 297 291 289 265 264 237 261 231 222 230 252 26 342 314 293 286
89 80 104 79 73 357 144 155 137 231 132 70 70 104 168 217 207 216 218 230 232 243 219 211 230 253 264 275 284 286 281 254 258 222 222 255 258 261 287 290 246 252 278 273
88 95 21 106 92 154 158 163 187 156 105 148 118 146 203 79 193 246 219 220 216 208 218 224 253 260 272 291 294 284 277 244 232 204 216 242 233 268 294 308 318 273 268 262